NORTHEAST SUFFOLK  -  Winter Storm Watch Winter Storm Watch        NORTHERN NASSAU  -  Winter Storm Watch Winter Storm Watch        NORTHERN QUEENS  -  Winter Storm Watch Winter Storm Watch        NORTHWEST SUFFOLK  -  Winter Storm Watch Winter Storm Watch        SOUTHEAST SUFFOLK  -  Winter Storm Watch Winter Storm Watch        SOUTHERN NASSAU  -  Winter Storm Watch Winter Storm Watch        SOUTHERN QUEENS  -  Winter Storm Watch Winter Storm Watch        SOUTHWEST SUFFOLK  -  Winter Storm Watch Winter Storm Watch      

Active alerts

Northern Queens
  Details for Northern Queens Winter Storm Watch
Southern Queens
  Details for Southern Queens Winter Storm Watch
Northern Nassau
  Details for Northern Nassau Winter Storm Watch
Southern Nassau
  Details for Southern Nassau Winter Storm Watch
Northwest Suffolk
  Details for Northwest Suffolk Winter Storm Watch
Southwest Suffolk
  Details for Southwest Suffolk Winter Storm Watch
Northeast Suffolk
  Details for Northeast Suffolk Winter Storm Watch
Southeast Suffolk
  Details for Southeast Suffolk Winter Storm Watch


WXM80 ListenWXM80 Stop

You find our weather info also at:

UK Metoffice

WeatherCloud

Weather Underground

Northeastern Weather Network

AWEKAS

Citizen Weather Observer Program (CWOP)

HAMweather, WeatherForYou, PWS Weather


Weather Underground History page Text

Daily Summary for July 21, 2017 Units:  English    Metric   Both
« Previous Day
Next Day »
Daily Weekly Monthly Yearly Custom
  High: Low: Average:
Temperature: 94.4 °F 74.8 °F 83.9 °F
Dew Point: 77.2 °F 68.3 °F 71.1 °F
Humidity: 86 % 45 % 67 %
Wind Speed: 6.4 mph 0.0 mph 1.3 mph
Wind Gust: 10.4 mph - -
Wind:- - West
Pressure: 29.87 in 29.79 in -
Precipitation: 0.00 in    
Historical Graphs
 
 
Tabular Data for July 21, 2017
Time Temperature Dew Point Pressure Wind Wind Speed Wind Gust Humidity Rainfall Rate (Hourly)
00:04 78.9 °F 69.1 °F 29.80 in SW 1.0 mph 3.5 mph 72 % 0.00 in
00:09 78.8 °F 69.0 °F 29.81 in SW 0.5 mph 2.3 mph 72 % 0.00 in
00:14 78.8 °F 69.0 °F 29.81 in SW 1.5 mph 5.8 mph 72 % 0.00 in
00:19 78.7 °F 68.9 °F 29.81 in SW 3.6 mph 5.8 mph 72 % 0.00 in
00:24 78.7 °F 68.9 °F 29.81 in WSW 3.5 mph 8.1 mph 72 % 0.00 in
00:29 78.6 °F 69.2 °F 29.81 in WSW 0.8 mph 2.3 mph 73 % 0.00 in
00:34 78.6 °F 69.2 °F 29.81 in SSW 1.2 mph 4.0 mph 73 % 0.00 in
00:40 78.6 °F 69.2 °F 29.81 in SW 2.2 mph 6.9 mph 73 % 0.00 in
00:41 78.6 °F 69.2 °F 29.81 in SW 1.0 mph 7.0 mph 73 % 0.00 in
00:46 78.5 °F 69.1 °F 29.81 in SW 2.0 mph 5.0 mph 73 % 0.00 in
00:51 78.5 °F 69.1 °F 29.81 in Calm   4.0 mph 73 % 0.00 in
00:56 78.5 °F 69.1 °F 29.81 in WSW 1.0 mph 7.0 mph 73 % 0.00 in
01:01 78.5 °F 69.1 °F 29.81 in SSW 1.4 mph 4.6 mph 73 % 0.00 in
01:06 78.4 °F 69.4 °F 29.82 in WSW 0.1 mph 2.3 mph 74 % 0.00 in
01:11 78.4 °F 69.0 °F 29.82 in West 0.2 mph 3.5 mph 73 % 0.00 in
01:16 78.4 °F 69.4 °F 29.82 in Calm   3.5 mph 74 % 0.00 in
01:21 78.3 °F 69.3 °F 29.82 in WSW 0.1 mph 5.0 mph 74 % 0.00 in
01:26 78.3 °F 69.3 °F 29.82 in SW 1.9 mph 3.5 mph 74 % 0.00 in
01:31 78.3 °F 69.3 °F 29.83 in West 0.2 mph 1.2 mph 74 % 0.00 in
01:36 78.2 °F 69.2 °F 29.83 in West 2.3 mph 3.5 mph 74 % 0.00 in
01:41 78.2 °F 69.2 °F 29.82 in WNW 1.1 mph 3.5 mph 74 % 0.00 in
01:46 78.2 °F 69.2 °F 29.83 in WNW 0.3 mph 2.3 mph 74 % 0.00 in
01:51 78.2 °F 69.6 °F 29.83 in WNW 0.2 mph 1.2 mph 75 % 0.00 in
01:56 78.3 °F 69.7 °F 29.82 in Calm     75 % 0.00 in
02:01 78.3 °F 69.7 °F 29.82 in Calm   1.2 mph 75 % 0.00 in
02:06 78.3 °F 69.7 °F 29.82 in WSW 0.1 mph   75 % 0.00 in
02:11 78.3 °F 69.7 °F 29.82 in Calm   2.3 mph 75 % 0.00 in
02:16 78.3 °F 69.7 °F 29.82 in WSW 0.2 mph 2.0 mph 75 % 0.00 in
02:21 78.3 °F 69.7 °F 29.82 in NW 1.3 mph 3.5 mph 75 % 0.00 in
02:26 78.2 °F 69.6 °F 29.82 in SSW 0.5 mph 1.2 mph 75 % 0.00 in
02:31 78.2 °F 70.0 °F 29.83 in WSW 1.6 mph 3.5 mph 76 % 0.00 in
02:36 78.1 °F 69.5 °F 29.82 in Calm     75 % 0.00 in
02:41 78.0 °F 69.8 °F 29.82 in Calm     76 % 0.00 in
02:46 77.9 °F 69.7 °F 29.82 in WNW 0.1 mph 1.2 mph 76 % 0.00 in
02:51 77.9 °F 69.7 °F 29.82 in WNW 0.2 mph 1.0 mph 76 % 0.00 in
02:56 77.8 °F 70.0 °F 29.82 in Calm   1.2 mph 77 % 0.00 in
03:01 77.7 °F 69.9 °F 29.82 in WNW 0.2 mph 1.0 mph 77 % 0.00 in
03:07 77.6 °F 69.8 °F 29.82 in Calm     77 % 0.00 in
03:12 77.5 °F 69.7 °F 29.82 in WNW 0.1 mph 1.2 mph 77 % 0.00 in
03:17 77.4 °F 69.6 °F 29.82 in WNW 0.2 mph 1.2 mph 77 % 0.00 in
03:22 77.3 °F 69.5 °F 29.82 in Calm     77 % 0.00 in
03:27 77.2 °F 69.8 °F 29.82 in Calm   1.0 mph 78 % 0.00 in
03:28 77.2 °F 69.8 °F 29.82 in Calm   1.2 mph 78 % 0.00 in
03:33 77.1 °F 69.7 °F 29.82 in Calm   1.2 mph 78 % 0.00 in
03:38 76.9 °F 69.9 °F 29.82 in Calm     79 % 0.00 in
03:43 76.8 °F 69.8 °F 29.82 in WNW 0.1 mph 1.2 mph 79 % 0.00 in
03:48 76.6 °F 69.6 °F 29.82 in Calm     79 % 0.00 in
03:53 76.5 °F 69.5 °F 29.82 in WNW 0.2 mph 1.2 mph 79 % 0.00 in
03:58 76.3 °F 69.3 °F 29.82 in Calm     79 % 0.00 in
04:03 76.2 °F 69.6 °F 29.82 in Calm     80 % 0.00 in
04:08 76.0 °F 69.4 °F 29.82 in Calm     80 % 0.00 in
04:13 75.9 °F 69.6 °F 29.82 in Calm     81 % 0.00 in
04:18 75.8 °F 69.6 °F 29.81 in Calm     81 % 0.00 in
04:23 75.7 °F 69.5 °F 29.82 in Calm     81 % 0.00 in
04:28 75.6 °F 69.7 °F 29.82 in Calm     82 % 0.00 in
04:33 75.5 °F 69.6 °F 29.81 in Calm     82 % 0.00 in
04:38 75.3 °F 69.4 °F 29.82 in Calm     82 % 0.00 in
04:43 75.2 °F 69.7 °F 29.81 in West 0.8 mph 2.0 mph 83 % 0.00 in
04:48 75.1 °F 69.6 °F 29.81 in West 0.9 mph 1.0 mph 83 % 0.00 in
04:53 74.9 °F 69.7 °F 29.81 in West 0.4 mph 1.2 mph 84 % 0.00 in
04:59 74.9 °F 69.7 °F 29.81 in West 0.3 mph 2.3 mph 84 % 0.00 in
05:04 74.8 °F 69.6 °F 29.82 in West 0.4 mph 2.0 mph 84 % 0.00 in
05:09 74.8 °F 70.0 °F 29.82 in West 0.3 mph 2.3 mph 85 % 0.00 in
05:14 74.8 °F 69.6 °F 29.82 in West 1.1 mph 2.3 mph 84 % 0.00 in
05:19 74.8 °F 70.0 °F 29.82 in WSW 1.8 mph 4.6 mph 85 % 0.00 in
05:24 74.8 °F 69.6 °F 29.82 in NW 2.4 mph 3.5 mph 84 % 0.00 in
05:29 74.8 °F 70.0 °F 29.82 in WNW 2.4 mph 4.6 mph 85 % 0.00 in
05:34 74.8 °F 70.0 °F 29.82 in WNW 2.6 mph 4.6 mph 85 % 0.00 in
05:39 74.8 °F 70.0 °F 29.83 in WNW 0.2 mph 2.3 mph 85 % 0.00 in
05:44 74.8 °F 70.0 °F 29.83 in West 0.5 mph 3.5 mph 85 % 0.00 in
05:49 74.9 °F 70.1 °F 29.83 in West 0.9 mph 2.3 mph 85 % 0.00 in
05:54 74.9 °F 70.1 °F 29.83 in Calm     85 % 0.00 in
05:59 74.9 °F 70.1 °F 29.83 in West 0.5 mph 1.2 mph 85 % 0.00 in
06:04 74.9 °F 70.1 °F 29.83 in West 1.3 mph 2.3 mph 85 % 0.00 in
06:09 74.9 °F 70.1 °F 29.83 in SW 0.5 mph 1.2 mph 85 % 0.00 in
06:14 74.9 °F 70.1 °F 29.83 in SSW 1.3 mph 2.3 mph 85 % 0.00 in
06:19 74.9 °F 70.4 °F 29.83 in Calm     86 % 0.00 in
06:24 74.9 °F 70.1 °F 29.83 in SSW 0.1 mph 1.2 mph 85 % 0.00 in
06:29 74.9 °F 70.4 °F 29.83 in SSW 0.6 mph 3.5 mph 86 % 0.00 in
06:34 74.9 °F 70.4 °F 29.83 in West 0.8 mph 3.5 mph 86 % 0.00 in
06:39 75.0 °F 70.5 °F 29.83 in West 1.2 mph 2.3 mph 86 % 0.00 in
06:44 75.2 °F 70.7 °F 29.83 in Calm   2.3 mph 86 % 0.00 in
06:50 75.4 °F 70.9 °F 29.83 in SW 0.2 mph 3.5 mph 86 % 0.00 in
06:55 75.6 °F 71.1 °F 29.84 in SW 0.7 mph 3.5 mph 86 % 0.00 in
07:00 75.9 °F 71.1 °F 29.84 in Calm     85 % 0.00 in
07:05 76.3 °F 71.5 °F 29.84 in Calm   3.5 mph 85 % 0.00 in
07:10 76.7 °F 71.5 °F 29.84 in WNW 0.3 mph 1.2 mph 84 % 0.00 in
07:15 77.0 °F 71.4 °F 29.84 in Calm     83 % 0.00 in
07:20 77.3 °F 71.7 °F 29.84 in SW 0.7 mph 2.3 mph 83 % 0.00 in
07:25 77.6 °F 71.7 °F 29.84 in SW 0.3 mph 2.3 mph 82 % 0.00 in
07:30 77.9 °F 72.0 °F 29.84 in Calm   2.3 mph 82 % 0.00 in
07:35 78.0 °F 71.7 °F 29.84 in SW 0.2 mph   81 % 0.00 in
07:40 78.2 °F 71.5 °F 29.84 in SW 0.3 mph 3.5 mph 80 % 0.00 in
07:45 78.3 °F 71.6 °F 29.84 in West 1.0 mph 3.5 mph 80 % 0.00 in
07:50 78.4 °F 71.7 °F 29.84 in NW 0.3 mph 4.6 mph 80 % 0.00 in
07:55 78.5 °F 71.8 °F 29.84 in WSW 0.1 mph 1.2 mph 80 % 0.00 in
08:00 78.5 °F 71.8 °F 29.85 in WSW 1.6 mph 4.6 mph 80 % 0.00 in
08:05 78.5 °F 71.4 °F 29.85 in WNW 2.0 mph 5.8 mph 79 % 0.00 in
08:10 78.5 °F 71.4 °F 29.85 in SW 3.4 mph 5.0 mph 79 % 0.00 in
08:15 78.4 °F 71.7 °F 29.85 in WNW 2.8 mph 6.0 mph 80 % 0.00 in
08:20 78.4 °F 72.1 °F 29.86 in NW 1.0 mph 3.5 mph 81 % 0.00 in
08:25 78.4 °F 71.7 °F 29.86 in WNW 4.8 mph 6.9 mph 80 % 0.00 in
08:30 78.4 °F 71.7 °F 29.86 in WNW 3.2 mph 4.6 mph 80 % 0.00 in
08:35 78.5 °F 71.8 °F 29.86 in West 3.9 mph 9.2 mph 80 % 0.00 in
08:40 78.6 °F 71.5 °F 29.86 in WNW 1.0 mph 3.5 mph 79 % 0.00 in
08:45 78.7 °F 71.6 °F 29.86 in WNW 3.4 mph 7.0 mph 79 % 0.00 in
08:50 78.8 °F 71.7 °F 29.86 in WNW 0.7 mph 3.5 mph 79 % 0.00 in
08:56 78.9 °F 71.5 °F 29.86 in West 3.4 mph 9.2 mph 78 % 0.00 in
09:01 79.1 °F 71.6 °F 29.86 in West 0.5 mph 5.8 mph 78 % 0.00 in
09:06 79.1 °F 71.6 °F 29.86 in NW 2.5 mph 8.1 mph 78 % 0.00 in
09:11 79.3 °F 71.8 °F 29.86 in WNW 2.0 mph 5.8 mph 78 % 0.00 in
09:16 79.5 °F 72.0 °F 29.86 in WNW 2.4 mph 7.0 mph 78 % 0.00 in
09:21 79.7 °F 72.2 °F 29.86 in NW 4.6 mph 8.1 mph 78 % 0.00 in
09:26 79.8 °F 71.9 °F 29.86 in WNW 5.3 mph 9.2 mph 77 % 0.00 in
09:31 79.9 °F 72.0 °F 29.86 in WNW 2.9 mph 5.0 mph 77 % 0.00 in
09:36 80.1 °F 72.2 °F 29.86 in SSW 1.5 mph 4.6 mph 77 % 0.00 in
09:41 80.3 °F 72.4 °F 29.87 in WNW 4.4 mph 8.1 mph 77 % 0.00 in
09:45 80.5 °F 72.2 °F 29.87 in WNW 4.3 mph 6.9 mph 76 % 0.00 in
09:50 81.0 °F 72.3 °F 29.86 in WNW 2.5 mph 9.2 mph 75 % 0.00 in
09:55 81.5 °F 72.8 °F 29.86 in WNW 3.2 mph 5.8 mph 75 % 0.00 in
10:00 82.0 °F 73.7 °F 29.86 in West 1.6 mph 6.9 mph 76 % 0.00 in
10:05 82.7 °F 73.6 °F 29.86 in NW 2.3 mph 6.9 mph 74 % 0.00 in
10:10 83.4 °F 73.4 °F 29.86 in NW 2.8 mph 6.9 mph 72 % 0.00 in
10:15 84.3 °F 73.4 °F 29.86 in WNW 4.8 mph 6.9 mph 70 % 0.00 in
10:20 85.1 °F 73.3 °F 29.86 in WNW 4.9 mph 6.9 mph 68 % 0.00 in
10:25 85.9 °F 74.1 °F 29.86 in NW 2.4 mph 5.0 mph 68 % 0.00 in
10:30 86.5 °F 73.8 °F 29.86 in NW 2.6 mph 4.6 mph 66 % 0.00 in
10:35 87.1 °F 73.9 °F 29.86 in WNW 0.9 mph 3.5 mph 65 % 0.00 in
10:40 87.5 °F 72.9 °F 29.86 in SW 3.9 mph 9.2 mph 62 % 0.00 in
10:46 87.9 °F 73.7 °F 29.86 in WSW 3.0 mph 8.0 mph 63 % 0.00 in
10:50 88.3 °F 73.6 °F 29.86 in WSW 2.0 mph 6.0 mph 62 % 0.00 in
10:56 88.8 °F 74.5 °F 29.86 in West 1.0 mph 7.0 mph 63 % 0.00 in
11:01 89.3 °F 73.6 °F 29.86 in West 2.9 mph 5.8 mph 60 % 0.00 in
11:06 89.5 °F 73.8 °F 29.86 in WNW 0.8 mph 3.5 mph 60 % 0.00 in
11:11 90.1 °F 77.2 °F 29.86 in WNW 0.1 mph 1.2 mph 66 % 0.00 in
11:16 90.5 °F 77.1 °F 29.86 in WNW 0.2 mph 1.2 mph 65 % 0.00 in
11:21 90.7 °F 75.9 °F 29.86 in SW 1.5 mph 6.9 mph 62 % 0.00 in
11:26 91.0 °F 76.7 °F 29.85 in West 0.2 mph 3.0 mph 63 % 0.00 in
11:27 91.0 °F 73.7 °F 29.85 in West 0.8 mph 3.5 mph 57 % 0.00 in
11:32 91.0 °F 76.2 °F 29.85 in WNW 0.7 mph 2.3 mph 62 % 0.00 in
11:37 91.1 °F 75.8 °F 29.85 in SW 1.8 mph 4.0 mph 61 % 0.00 in
11:42 91.1 °F 74.3 °F 29.85 in SW 3.5 mph 5.8 mph 58 % 0.00 in
11:47 91.1 °F 74.3 °F 29.84 in WNW 1.7 mph 3.5 mph 58 % 0.00 in
11:52 91.2 °F 73.8 °F 29.85 in WSW 2.0 mph 3.5 mph 57 % 0.00 in
11:57 91.2 °F 74.9 °F 29.85 in SSW 0.1 mph 2.0 mph 59 % 0.00 in
12:02 91.3 °F 76.0 °F 29.85 in WNW 1.2 mph 3.5 mph 61 % 0.00 in
12:07 91.4 °F 75.6 °F 29.84 in WNW 1.9 mph 3.5 mph 60 % 0.00 in
12:12 91.5 °F 76.6 °F 29.84 in WNW 1.5 mph 5.0 mph 62 % 0.00 in
12:17 91.6 °F 75.2 °F 29.84 in WNW 1.6 mph 4.0 mph 59 % 0.00 in
12:22 91.8 °F 74.4 °F 29.84 in WNW 0.2 mph 4.6 mph 57 % 0.00 in
12:27 92.0 °F 74.1 °F 29.84 in WNW 1.4 mph 2.3 mph 56 % 0.00 in
12:33 92.2 °F 73.2 °F 29.84 in West 1.5 mph 3.5 mph 54 % 0.00 in
12:38 92.4 °F 76.5 °F 29.84 in NW 0.1 mph 6.9 mph 60 % 0.00 in
12:43 92.6 °F 74.6 °F 29.84 in NW 2.1 mph 4.6 mph 56 % 0.00 in
12:48 92.8 °F 74.8 °F 29.84 in WNW 2.8 mph 4.0 mph 56 % 0.00 in
12:53 93.0 °F 75.0 °F 29.84 in WNW 2.8 mph 5.0 mph 56 % 0.00 in
12:58 93.1 °F 72.9 °F 29.84 in WNW 3.4 mph 5.8 mph 52 % 0.00 in
13:03 93.1 °F 73.4 °F 29.84 in WNW 3.5 mph 4.0 mph 53 % 0.00 in
13:08 93.1 °F 72.9 °F 29.84 in NW 3.2 mph 5.8 mph 52 % 0.00 in
13:13 93.1 °F 74.5 °F 29.83 in NW 1.2 mph 5.8 mph 55 % 0.00 in
13:18 93.3 °F 73.6 °F 29.83 in SW 2.2 mph 3.5 mph 53 % 0.00 in
13:23 93.5 °F 73.2 °F 29.83 in South 3.1 mph 6.9 mph 52 % 0.00 in
13:28 93.6 °F 73.9 °F 29.83 in NW 0.6 mph 3.5 mph 53 % 0.00 in
13:33 93.8 °F 76.3 °F 29.83 in NNW 0.9 mph 1.2 mph 57 % 0.00 in
13:38 93.9 °F 72.4 °F 29.83 in WNW 3.1 mph 5.8 mph 50 % 0.00 in
13:43 94.0 °F 74.3 °F 29.83 in West 1.7 mph 4.6 mph 53 % 0.00 in
13:49 94.2 °F 72.1 °F 29.83 in SSW 0.5 mph 3.5 mph 49 % 0.00 in
13:54 94.4 °F 73.5 °F 29.83 in WSW 4.3 mph 7.0 mph 51 % 0.00 in
13:59 94.4 °F 72.3 °F 29.82 in South 1.7 mph 5.8 mph 49 % 0.00 in
14:04 94.4 °F 74.1 °F 29.82 in Calm   1.2 mph 52 % 0.00 in
14:09 94.4 °F 73.5 °F 29.82 in SW 1.6 mph 3.5 mph 51 % 0.00 in
14:14 94.4 °F 73.5 °F 29.82 in NW 3.1 mph 4.6 mph 51 % 0.00 in
14:19 94.4 °F 72.3 °F 29.82 in WSW 0.3 mph 3.5 mph 49 % 0.00 in
14:24 94.3 °F 72.2 °F 29.82 in WSW 3.1 mph 6.0 mph 49 % 0.00 in
14:29 94.3 °F 72.8 °F 29.82 in WSW 0.6 mph 3.5 mph 50 % 0.00 in
14:34 94.3 °F 72.2 °F 29.81 in SSW 4.0 mph 5.0 mph 49 % 0.00 in
14:39 94.3 °F 71.0 °F 29.81 in West 0.1 mph 3.5 mph 47 % 0.00 in
14:44 94.4 °F 71.1 °F 29.81 in West 5.2 mph 9.2 mph 47 % 0.00 in
14:46 94.3 °F 71.6 °F 29.81 in West 6.4 mph 8.1 mph 48 % 0.00 in
14:51 94.2 °F 71.5 °F 29.81 in SW 3.0 mph 4.6 mph 48 % 0.00 in
14:56 94.1 °F 72.0 °F 29.81 in SW 2.6 mph 4.0 mph 49 % 0.00 in
15:01 93.9 °F 71.8 °F 29.81 in SSW 3.6 mph 5.8 mph 49 % 0.00 in
15:06 93.7 °F 71.0 °F 29.81 in South 4.2 mph 8.0 mph 48 % 0.00 in
15:11 93.5 °F 70.9 °F 29.81 in SSW 2.9 mph 5.8 mph 48 % 0.00 in
15:16 93.4 °F 71.4 °F 29.81 in WSW 1.7 mph 4.6 mph 49 % 0.00 in
15:21 93.3 °F 71.3 °F 29.81 in SSW 2.1 mph 4.6 mph 49 % 0.00 in
15:26 93.2 °F 71.2 °F 29.81 in West 3.1 mph 3.5 mph 49 % 0.00 in
15:32 93.2 °F 70.6 °F 29.81 in WSW 3.1 mph 8.1 mph 48 % 0.00 in
15:37 93.2 °F 70.6 °F 29.80 in SSW 2.4 mph 6.9 mph 48 % 0.00 in
15:42 93.3 °F 71.3 °F 29.81 in WSW 3.3 mph 4.6 mph 49 % 0.00 in
15:47 93.5 °F 71.5 °F 29.81 in WSW 0.8 mph 3.5 mph 49 % 0.00 in
15:52 93.7 °F 71.7 °F 29.81 in West 2.7 mph 4.6 mph 49 % 0.00 in
15:57 93.9 °F 71.8 °F 29.81 in West 1.6 mph 3.5 mph 49 % 0.00 in
16:02 94.0 °F 72.5 °F 29.81 in Calm   4.6 mph 50 % 0.00 in
16:07 94.1 °F 71.4 °F 29.81 in WSW 2.8 mph 7.0 mph 48 % 0.00 in
16:12 93.9 °F 70.0 °F 29.81 in WNW 5.0 mph 6.9 mph 46 % 0.00 in
16:17 93.6 °F 71.0 °F 29.81 in NW 0.4 mph 1.2 mph 48 % 0.00 in
16:22 93.7 °F 70.4 °F 29.81 in North 4.1 mph 6.9 mph 47 % 0.00 in
16:27 93.8 °F 70.5 °F 29.81 in WSW 1.5 mph 4.0 mph 47 % 0.00 in
16:32 93.9 °F 71.2 °F 29.81 in NW 0.9 mph 3.5 mph 48 % 0.00 in
16:37 94.0 °F 70.1 °F 29.81 in West 4.6 mph 9.2 mph 46 % 0.00 in
16:42 93.9 °F 70.0 °F 29.81 in WNW 2.4 mph 6.9 mph 46 % 0.00 in
16:47 93.8 °F 69.9 °F 29.81 in NW 1.1 mph 2.3 mph 46 % 0.00 in
16:52 93.6 °F 69.1 °F 29.80 in WSW 5.2 mph 9.2 mph 45 % 0.00 in
16:57 93.5 °F 70.2 °F 29.81 in WNW 4.1 mph 7.0 mph 47 % 0.00 in
17:02 93.4 °F 70.2 °F 29.80 in WNW 2.3 mph 10.4 mph 47 % 0.00 in
17:08 93.3 °F 69.4 °F 29.80 in West 4.0 mph 6.0 mph 46 % 0.00 in
17:10 93.2 °F 69.3 °F 29.80 in WNW 3.0 mph 6.0 mph 46 % 0.00 in
17:20 93.0 °F 69.8 °F 29.80 in West 2.7 mph 8.1 mph 47 % 0.00 in
17:31 92.8 °F 70.2 °F 29.80 in WNW 2.0 mph 4.0 mph 48 % 0.00 in
17:36 92.5 °F 69.9 °F 29.80 in WSW 2.0 mph 8.0 mph 48 % 0.00 in
17:41 92.3 °F 70.4 °F 29.80 in SSW 2.6 mph 3.5 mph 49 % 0.00 in
17:46 92.1 °F 70.2 °F 29.80 in WNW 3.3 mph 4.0 mph 49 % 0.00 in
17:50 91.9 °F 69.4 °F 29.80 in West 0.6 mph 5.8 mph 48 % 0.00 in
17:51 91.9 °F 69.4 °F 29.80 in West 0.8 mph 2.3 mph 48 % 0.00 in
17:56 91.6 °F 69.7 °F 29.80 in WNW 0.2 mph 1.2 mph 49 % 0.00 in
18:01 91.5 °F 69.6 °F 29.80 in NW 0.8 mph 3.5 mph 49 % 0.00 in
18:06 91.3 °F 69.5 °F 29.80 in West 1.6 mph 3.5 mph 49 % 0.00 in
18:11 91.1 °F 69.3 °F 29.80 in WNW 3.4 mph 6.9 mph 49 % 0.00 in
18:16 90.7 °F 68.3 °F 29.80 in West 4.2 mph 6.9 mph 48 % 0.00 in
18:21 90.3 °F 69.1 °F 29.80 in West 2.9 mph 4.6 mph 50 % 0.00 in
18:26 90.0 °F 68.3 °F 29.80 in West 2.5 mph 4.6 mph 49 % 0.00 in
18:31 89.9 °F 69.3 °F 29.80 in WNW 0.2 mph 3.5 mph 51 % 0.00 in
18:36 89.6 °F 68.5 °F 29.80 in West 0.2 mph 2.3 mph 50 % 0.00 in
18:41 89.3 °F 68.8 °F 29.80 in West 1.3 mph 4.6 mph 51 % 0.00 in
18:47 89.1 °F 69.2 °F 29.80 in WNW 0.6 mph 4.6 mph 52 % 0.00 in
18:52 88.9 °F 69.0 °F 29.80 in West 1.2 mph 3.5 mph 52 % 0.00 in
18:57 88.8 °F 69.5 °F 29.80 in West 3.7 mph 8.1 mph 53 % 0.00 in
19:02 88.8 °F 69.5 °F 29.80 in West 0.7 mph 3.5 mph 53 % 0.00 in
19:07 88.7 °F 69.4 °F 29.80 in SW 2.3 mph 4.6 mph 53 % 0.00 in
19:12 88.6 °F 69.3 °F 29.79 in WSW 0.2 mph 1.2 mph 53 % 0.00 in
19:17 88.4 °F 70.7 °F 29.80 in SSE 0.1 mph 1.2 mph 56 % 0.00 in
19:22 88.3 °F 70.1 °F 29.80 in Calm     55 % 0.00 in
19:27 88.1 °F 70.4 °F 29.80 in Calm     56 % 0.00 in
19:32 87.9 °F 70.8 °F 29.79 in Calm     57 % 0.00 in
19:37 87.6 °F 71.0 °F 29.79 in Calm     58 % 0.00 in
19:43 87.3 °F 70.7 °F 29.80 in Calm   1.2 mph 58 % 0.00 in
19:48 87.0 °F 70.9 °F 29.80 in Calm     59 % 0.00 in
19:53 86.6 °F 71.1 °F 29.80 in Calm     60 % 0.00 in
19:58 86.3 °F 71.3 °F 29.80 in Calm     61 % 0.00 in
20:03 85.8 °F 71.3 °F 29.80 in Calm     62 % 0.00 in
20:08 85.4 °F 71.4 °F 29.80 in Calm     63 % 0.00 in
20:13 85.1 °F 71.1 °F 29.79 in Calm     63 % 0.00 in
20:14 85.0 °F 71.0 °F 29.79 in WNW 0.1 mph 1.2 mph 63 % 0.00 in
20:19 84.6 °F 71.1 °F 29.79 in Calm   1.2 mph 64 % 0.00 in
20:24 84.3 °F 70.8 °F 29.79 in WNW 0.4 mph 1.2 mph 64 % 0.00 in
20:29 84.0 °F 70.5 °F 29.79 in Calm   1.2 mph 64 % 0.00 in
20:34 83.7 °F 70.2 °F 29.79 in Calm   1.2 mph 64 % 0.00 in
20:39 83.4 °F 69.9 °F 29.79 in West 1.0 mph 3.5 mph 64 % 0.00 in
20:45 83.2 °F 69.8 °F 29.79 in SW 0.3 mph 3.5 mph 64 % 0.00 in
20:49 83.0 °F 69.6 °F 29.80 in Calm   1.0 mph 64 % 0.00 in
20:55 82.7 °F 69.7 °F 29.80 in SW 0.1 mph 1.2 mph 65 % 0.00 in
21:00 82.6 °F 70.1 °F 29.80 in Calm   1.0 mph 66 % 0.00 in
21:05 82.5 °F 70.0 °F 29.80 in SW 0.1 mph 1.2 mph 66 % 0.00 in
21:10 82.3 °F 70.2 °F 29.81 in SW 0.1 mph 1.2 mph 67 % 0.00 in
21:15 82.1 °F 70.1 °F 29.81 in Calm     67 % 0.00 in
21:20 82.0 °F 70.0 °F 29.81 in Calm     67 % 0.00 in
21:25 81.8 °F 69.8 °F 29.81 in Calm     67 % 0.00 in
21:30 81.8 °F 70.2 °F 29.81 in Calm     68 % 0.00 in
21:35 81.7 °F 70.1 °F 29.81 in Calm     68 % 0.00 in
21:40 81.5 °F 69.9 °F 29.81 in Calm     68 % 0.00 in
21:45 81.4 °F 69.8 °F 29.81 in Calm   1.2 mph 68 % 0.00 in
21:50 81.3 °F 69.7 °F 29.81 in Calm     68 % 0.00 in
21:56 81.2 °F 69.6 °F 29.81 in Calm   1.0 mph 68 % 0.00 in
22:01 81.1 °F 70.0 °F 29.81 in Calm     69 % 0.00 in
22:06 81.0 °F 69.9 °F 29.81 in Calm     69 % 0.00 in
22:11 80.9 °F 69.8 °F 29.81 in Calm     69 % 0.00 in
22:16 80.8 °F 70.1 °F 29.81 in Calm     70 % 0.00 in
22:21 80.7 °F 70.0 °F 29.82 in Calm     70 % 0.00 in
22:26 80.6 °F 69.9 °F 29.82 in Calm     70 % 0.00 in
22:31 80.5 °F 70.2 °F 29.81 in Calm     71 % 0.00 in
22:36 80.5 °F 70.6 °F 29.81 in Calm     72 % 0.00 in
22:41 80.4 °F 70.9 °F 29.81 in Calm     73 % 0.00 in
22:46 80.3 °F 70.4 °F 29.81 in Calm     72 % 0.00 in
22:51 80.2 °F 70.4 °F 29.81 in Calm     72 % 0.00 in
22:57 80.2 °F 70.8 °F 29.81 in Calm     73 % 0.00 in
23:02 80.1 °F 71.1 °F 29.82 in Calm     74 % 0.00 in
23:07 80.0 °F 71.0 °F 29.81 in Calm     74 % 0.00 in
23:12 79.9 °F 70.9 °F 29.81 in Calm     74 % 0.00 in
23:17 79.8 °F 71.2 °F 29.82 in Calm   1.2 mph 75 % 0.00 in
23:22 79.7 °F 70.7 °F 29.81 in Calm     74 % 0.00 in
23:27 79.6 °F 71.0 °F 29.81 in Calm   1.2 mph 75 % 0.00 in
23:32 79.6 °F 71.4 °F 29.81 in Calm   1.0 mph 76 % 0.00 in
23:37 79.5 °F 71.3 °F 29.82 in SW 0.1 mph 1.2 mph 76 % 0.00 in
23:42 79.4 °F 71.6 °F 29.81 in SW 0.5 mph 2.0 mph 77 % 0.00 in
23:47 79.3 °F 71.8 °F 29.82 in SSE 1.2 mph 3.0 mph 78 % 0.00 in
23:52 79.3 °F 71.8 °F 29.82 in South 0.3 mph 1.2 mph 78 % 0.00 in
23:57 79.2 °F 72.1 °F 29.81 in South 0.1 mph 1.2 mph 79 % 0.00 in
Crab Meadow Weather
Compliments of Weather Underground - 3 mb

Script developed by  Jim McMurry - jmcmurry@mwt.net Adapted for the template by  Wim van der Kuil - Leuven-Template.eu

Weather Terms: Enhanced Fujita Scale or EF-Scale - A scale of wind damage intensity in which wind speeds are inferred from analysis of wind damage. All tornadoes and most other windstorms are assigned a numerical rating from this scale according to the most intense damage caused by the storm. EF0 (weak) 6585 mph, light damage EF1 (weak) 86110 mph, moderate damage EF2 (strong) 111135 mph, considerable damage EF3 (strong) 136165 mph, severe damage EF4 (violent) 166200 mph, devastating damage EF5 (violent) >200 mph, incredible damage.